| time (UTC) | temp C | wind direction | speed KPH | gust KPH | rain 1hr cm | rain 24hr cm | rain mn cm | humidity % | barometer mb |
| 20260510231510 | 16 | 292 | 3.2 | 8.0 | 0.00 | 0.08 | 0.08 | 41 | 1013.3 |
| 20260510230016 | 17 | 267 | 3.2 | 14.5 | 0.00 | 0.10 | 0.08 | 43 | 1012.9 |
| 20260510224521 | 17 | 5 | 1.6 | 9.7 | 0.00 | 0.10 | 0.08 | 45 | 1012.7 |
| 20260510223022 | 18 | 268 | 1.6 | 8.0 | 0.00 | 0.10 | 0.08 | 46 | 1012.5 |
| 20260510221508 | 17 | 232 | 1.6 | 14.5 | 0.00 | 0.10 | 0.08 | 50 | 1012.4 |
| 20260510220014 | 18 | 296 | 0.0 | 8.0 | 0.00 | 0.13 | 0.08 | 48 | 1012.2 |
| 20260510214517 | 18 | 247 | 1.6 | 14.5 | 0.00 | 0.15 | 0.08 | 51 | 1012.1 |
| 20260510213038 | 18 | 329 | 1.6 | 17.7 | 0.00 | 0.15 | 0.08 | 51 | 1012.1 |
| 20260510211517 | 17 | 221 | 1.6 | 9.7 | 0.00 | 0.18 | 0.08 | 55 | 1012.1 |
| 20260510210027 | 17 | 211 | 3.2 | 16.1 | 0.00 | 0.20 | 0.08 | 61 | 1012.1 |
| 20260510204516 | 17 | 342 | 4.8 | 14.5 | 0.00 | 0.23 | 0.08 | 63 | 1011.9 |
| 20260510203021 | 17 | 182 | 1.6 | 16.1 | 0.00 | 0.25 | 0.08 | 66 | 1012.0 |
| 20260510201525 | 17 | 348 | 3.2 | 12.9 | 0.00 | 0.33 | 0.08 | 65 | 1011.9 |
| 20260510200007 | 16 | 344 | 0.0 | 8.0 | 0.00 | 0.38 | 0.08 | 72 | 1012.1 |
| 20260510194512 | 16 | 17 | 0.0 | 6.4 | 0.00 | 0.46 | 0.08 | 73 | 1012.2 |
| 20260510193017 | 15 | 348 | 1.6 | 4.8 | 0.00 | 0.51 | 0.08 | 77 | 1012.3 |
| 20260510191524 | 15 | 348 | 4.8 | 12.9 | 0.00 | 0.58 | 0.08 | 78 | 1012.3 |
| 20260510190026 | 15 | 342 | 4.8 | 9.7 | 0.05 | 0.64 | 0.08 | 80 | 1012.4 |
| 20260510184508 | 14 | 302 | 8.0 | 14.5 | 0.05 | 0.69 | 0.08 | 81 | 1012.6 |
| 20260510183017 | 13 | 260 | 1.6 | 6.4 | 0.05 | 0.74 | 0.08 | 91 | 1012.7 |
| 20260510181551 | 12 | 338 | 3.2 | 9.7 | 0.05 | 0.79 | 0.08 | 93 | 1012.8 |
| 20260510180034 | 12 | 313 | 4.8 | 8.0 | 0.00 | 0.79 | 0.03 | 91 | 1012.9 |
| 20260510174544 | 12 | 360 | 1.6 | 6.4 | 0.00 | 0.84 | 0.03 | 91 | 1012.8 |
| 20260510173012 | 12 | 360 | 3.2 | 9.7 | 0.00 | 0.89 | 0.03 | 89 | 1012.8 |
| 20260510171519 | 12 | 350 | 3.2 | 14.5 | 0.00 | 0.94 | 0.03 | 86 | 1012.9 |
| 20260510170023 | 13 | 360 | 4.8 | 8.0 | 0.00 | 0.99 | 0.03 | 82 | 1012.6 |
| 20260510164526 | 14 | 360 | 0.0 | 4.8 | 0.00 | 1.02 | 0.03 | 83 | 1012.7 |
| 20260510163027 | 13 | 240 | 0.0 | 6.4 | 0.00 | 1.02 | 0.03 | 82 | 1012.8 |
| 20260510161511 | 13 | 127 | 1.6 | 4.8 | 0.00 | 1.02 | 0.03 | 82 | 1013.0 |
| 20260510160022 | 13 | 250 | 1.6 | 4.8 | 0.00 | 1.04 | 0.03 | 86 | 1012.8 |
| 20260510154524 | 13 | 242 | 0.0 | 4.8 | 0.00 | 1.07 | 0.03 | 87 | 1012.8 |
| 20260510153025 | 12 | 242 | 0.0 | 6.4 | 0.00 | 1.07 | 0.03 | 92 | 1012.8 |
| 20260510151526 | 11 | 74 | 0.0 | 4.8 | 0.00 | 1.07 | 0.03 | 95 | 1013.2 |
| 20260510150019 | 11 | 242 | 0.0 | 4.8 | 0.00 | 1.07 | 0.03 | 96 | 1013.2 |
| 20260510144520 | 10 | 198 | 0.0 | 3.2 | 0.00 | 1.07 | 0.03 | 98 | 1013.1 |
| 20260510143023 | 10 | 159 | 0.0 | 4.8 | 0.00 | 1.07 | 0.03 | 99 | 1013.0 |
| 20260510141534 | 9 | 38 | 0.0 | 3.2 | 0.00 | 1.07 | 0.03 | 98 | 1013.2 |
| 20260510140029 | 9 | 360 | 0.0 | 3.2 | 0.00 | 1.07 | 0.03 | 98 | 1013.2 |
| 20260510134518 | 9 | 38 | 0.0 | 3.2 | 0.00 | 1.07 | 0.03 | 98 | 1013.1 |
| 20260510133022 | 9 | 38 | 0.0 | 1.6 | 0.00 | 1.07 | 0.03 | 99 | 1012.8 |
| 20260510131525 | 8 | 360 | 0.0 | 1.6 | 0.00 | 1.07 | 0.03 | 98 | 1013.0 |
| 20260510130027 | 8 | 39 | 0.0 | 1.6 | 0.00 | 1.07 | 0.03 | 98 | 1013.2 |
| 20260510124516 | 7 | 38 | 0.0 | 3.2 | 0.00 | 1.07 | 0.03 | 98 | 1013.0 |
| 20260510123020 | 7 | 37 | 0.0 | 3.2 | 0.00 | 1.07 | 0.03 | 98 | 1013.1 |
| 20260510121504 | 7 | 37 | 0.0 | 3.2 | 0.00 | 1.07 | 0.03 | 98 | 1012.9 |
| 20260510120011 | 7 | 37 | 0.0 | 1.6 | 0.00 | 1.07 | 0.03 | 98 | 1012.9 |
| 20260510114512 | 7 | 37 | 0.0 | 1.6 | 0.00 | 1.07 | 0.03 | 98 | 1013.1 |
| 20260510113018 | 7 | 37 | 0.0 | 3.2 | 0.00 | 1.07 | 0.03 | 98 | 1013.1 |
| 20260510111521 | 6 | 37 | 0.0 | 1.6 | 0.00 | 1.07 | 0.03 | 98 | 1012.7 |
| 20260510110030 | 6 | 37 | 0.0 | 3.2 | 0.00 | 1.07 | 0.03 | 98 | 1012.5 |
| 20260510104513 | 6 | 37 | 0.0 | 1.6 | 0.00 | 1.07 | 0.03 | 98 | 1012.5 |
| 20260510103017 | 6 | 37 | 0.0 | 1.6 | 0.00 | 1.07 | 0.03 | 98 | 1011.7 |
| 20260510101519 | 6 | 37 | 0.0 | 1.6 | 0.00 | 1.07 | 0.03 | 98 | 1011.4 |
| 20260510100022 | 6 | 37 | 0.0 | 3.2 | 0.00 | 1.07 | 0.03 | 98 | 1011.8 |
| 20260510094515 | 6 | 37 | 0.0 | 3.2 | 0.00 | 1.07 | 0.03 | 98 | 1011.5 |
| 20260510093017 | 6 | 37 | 0.0 | 1.6 | 0.00 | 1.07 | 0.03 | 98 | 1011.3 |
| 20260510091519 | 6 | 37 | 0.0 | 1.6 | 0.00 | 1.07 | 0.03 | 98 | 1011.7 |
| 20260510090024 | 6 | 37 | 0.0 | 1.6 | 0.00 | 1.07 | 0.03 | 98 | 1011.8 |
| 20260510084530 | 6 | 37 | 0.0 | 3.2 | 0.00 | 1.07 | 0.03 | 98 | 1011.8 |
| 20260510083012 | 6 | 37 | 0.0 | 3.2 | 0.00 | 1.07 | 0.03 | 98 | 1012.1 |
| 20260510081523 | 6 | 37 | 1.6 | 4.8 | 0.03 | 1.07 | 0.03 | 98 | 1011.9 |
| 20260510080021 | 6 | 37 | 1.6 | 3.2 | 0.03 | 1.07 | 0.03 | 98 | 1011.7 |
| 20260510074527 | 6 | 37 | 0.0 | 1.6 | 0.03 | 1.07 | 0.03 | 98 | 1011.1 |
| 20260510073028 | 6 | 37 | 0.0 | 1.6 | 0.03 | 1.07 | 0.03 | 97 | 1011.9 |
| 20260510071518 | 6 | 340 | 0.0 | 4.8 | 0.00 | 1.04 | 0.00 | 97 | 1012.4 |
| 20260510070019 | 6 | 335 | 0.0 | 4.8 | 0.00 | 1.04 | 0.00 | 97 | 1012.2 |
| 20260510064520 | 6 | 10 | 0.0 | 3.2 | 0.00 | 1.04 | 0.00 | 97 | 1012.2 |
| 20260510063026 | 6 | 10 | 0.0 | 3.2 | 0.00 | 1.04 | 0.00 | 98 | 1012.2 |
| 20260510061524 | 6 | 10 | 0.0 | 1.6 | 0.00 | 1.04 | 0.00 | 98 | 1012.3 |
| 20260510060016 | 6 | 10 | 1.6 | 4.8 | 0.00 | 1.04 | 0.00 | 97 | 1012.1 |
| 20260510054520 | 6 | 245 | 0.0 | 1.6 | 0.00 | 1.04 | 0.00 | 97 | 1011.9 |
| 20260510053023 | 6 | 245 | 0.0 | 3.2 | 0.00 | 1.04 | 0.00 | 97 | 1012.4 |
| 20260510051527 | 6 | 245 | 0.0 | 3.2 | 0.00 | 1.04 | 0.00 | 97 | 1012.6 |
| 20260510050013 | 6 | 107 | 0.0 | 3.2 | 0.00 | 1.04 | 0.00 | 97 | 1012.5 |
| 20260510044518 | 6 | 173 | 0.0 | 1.6 | 0.00 | 1.04 | 0.00 | 97 | 1012.7 |
| 20260510043024 | 6 | 173 | 0.0 | 3.2 | 0.00 | 1.04 | 0.00 | 97 | 1012.7 |
| 20260510041524 | 6 | 108 | 0.0 | 1.6 | 0.00 | 1.04 | 0.00 | 97 | 1012.7 |
| 20260510040027 | 6 | 167 | 0.0 | 4.8 | 0.00 | 1.04 | 0.00 | 97 | 1012.6 |
| 20260510034516 | 6 | 107 | 0.0 | 11.3 | 0.00 | 1.04 | 1.04 | 97 | 1012.7 |
| 20260510033020 | 6 | 89 | 1.6 | 8.0 | 0.00 | 1.04 | 1.04 | 97 | 1012.8 |
| 20260510031536 | 6 | 169 | 0.0 | 3.2 | 0.00 | 1.04 | 1.04 | 97 | 1012.9 |
| 20260510030025 | 6 | 122 | 0.0 | 3.2 | 0.00 | 1.04 | 1.04 | 97 | 1013.1 |
| 20260510024540 | 6 | 347 | 0.0 | 4.8 | 0.00 | 1.04 | 1.04 | 97 | 1013.2 |
| 20260510023016 | 6 | 9 | 0.0 | 6.4 | 0.00 | 1.04 | 1.04 | 97 | 1013.0 |
| 20260510021525 | 6 | 132 | 1.6 | 9.7 | 0.00 | 1.04 | 1.04 | 97 | 1013.3 |
| 20260510020026 | 6 | 257 | 0.0 | 6.4 | 0.00 | 1.04 | 1.04 | 97 | 1013.2 |
| 20260510014525 | 6 | 349 | 0.0 | 4.8 | 0.00 | 1.04 | 1.04 | 97 | 1013.4 |
| 20260510013028 | 6 | 202 | 0.0 | 4.8 | 0.00 | 1.04 | 1.04 | 97 | 1013.5 |
| 20260510011506 | 6 | 277 | 1.6 | 9.7 | 0.00 | 1.04 | 1.04 | 96 | 1013.7 |
| 20260510010005 | 6 | 336 | 0.0 | 4.8 | 0.00 | 1.04 | 1.04 | 96 | 1013.4 |
| 20260510004503 | 6 | 47 | 1.6 | 9.7 | 0.00 | 1.04 | 1.04 | 96 | 1013.3 |
| 20260510003016 | 6 | 209 | 1.6 | 9.7 | 0.00 | 1.04 | 1.04 | 97 | 1013.1 |
| 20260510001511 | 6 | 175 | 0.0 | 4.8 | 0.00 | 1.04 | 1.04 | 97 | 1012.8 |
| 20260510000008 | 6 | 244 | 0.0 | 6.4 | 0.03 | 1.04 | 1.04 | 96 | 1012.7 |
| 20260509234517 | 6 | 315 | 0.0 | 6.4 | 0.03 | 1.04 | 1.04 | 96 | 1012.7 |
| 20260509233012 | 6 | 275 | 0.0 | 4.8 | 0.03 | 1.04 | 1.04 | 96 | 1012.5 |